This demonstration page uses our WeatherBlox Daily Observations layout. Learn more.

Left ArrowRight Arrow

Hourly Observations for August 27, 2022

Temp ( °F °C ) Dew Point ( °F °C ) Humidity (%) Winds ( mph kmh ) Pressure ( in mb ) Visibility ( mi km ) Precip ( " mm )
12:55 am 00:55 Clear 73 23 68 20.1 84 84 SSE 12 19 29.94 1014 10 16 0.00 0.00
1:55 am 01:55 Clear 73 22.7 68 20.2 86 86 SE 10 17 29.93 1014 10 16 0.00 0.00
2:55 am 02:55 Clear 72 22.1 68 20 88 88 SE 7 11 29.92 1013 10 16 0.00 0.00
3:55 am 03:55 Clear 72 22.2 68 19.9 87 87 SSE 7 11 29.91 1013 10 16 0.00 0.00
4:55 am 04:55 Clear 71 21.9 67 19.6 87 87 SSE 8 13 29.90 1013 10 16 0.00 0.00
5:55 am 05:55 Clear 70 21.3 67 19.2 88 88 SSE 6 9 29.90 1013 10 16 0.00 0.00
6:55 am 06:55 Mostly Cloudy 69 20.7 66 19 90 90 SSE 5 7 29.92 1013 10 16 0.00 0.00
7:55 am 07:55 Partly Cloudy 71 21.7 66 19 85 85 SSE 7 11 29.91 1013 10 16 0.00 0.00
8:55 am 08:55 undefined 75 23.7 67 19.6 78 78 S 6 9 29.91 1013 9 14 0.00 0.00
9:55 am 09:55 Partly Cloudy 79 26.1 68 19.9 69 69 S 8 13 29.91 1013 10 16 0.00 0.00
10:55 am 10:55 Partly Cloudy 82 27.8 67 19.6 61 61 S 8 13 29.89 1012 8 13 0.00 0.00
11:55 am 11:55 Mostly Cloudy 82 28 69 20.5 64 64 SSE 9 15 29.88 1012 8 13 0.00 0.00
12:55 pm 12:55 Partly Cloudy 84 28.9 69 20.8 62 62 S 10 17 29.87 1011 8 13 0.00 0.00
1:55 pm 13:55 Mostly Cloudy 83 28.4 70 21.1 65 65 SSE 9 15 29.85 1011 8 13 0.00 0.00
2:55 pm 14:55 Mostly Cloudy 82 28 71 21.5 68 68 S 8 13 29.84 1010 9 14 0.00 0.00
3:55 pm 15:55 Mostly Cloudy 83 28.2 71 21.9 69 69 SW 5 7 29.83 1010 10 16 0.00 0.00
4:05 pm 16:05 Mostly Cloudy with Light Rain 84 29 68 20 58 58 SW 7 11 29.82 1010 10 16 0.00 0.00
4:28 pm 16:28 Mostly Cloudy 84 29 66 19 55 55 S 6 9 29.80 1009 10 16 0.00 0.00
4:55 pm 16:55 Mostly Cloudy 83 28.6 68 19.8 59 59 S 3 6 29.80 1009 10 16 0.01 0.13
5:40 pm 17:40 Mostly Cloudy with Rain 81 27 68 20 66 66 SE 14 22 29.79 1009 10 16 0.00 0.00
5:55 pm 17:55 Partly Cloudy with Light Showers 78 25.8 67 19.7 69 69 SE 18 30 29.78 1008 10 16 0.01 0.25
6:01 pm 18:01 Partly Cloudy 79 26 64 18 61 61 SSE 18 30 29.78 1008 10 16 0.00 0.00
6:08 pm 18:08 Mostly Cloudy with Light Showers 77 25 64 18 65 65 SSE 14 22 29.78 1009 10 16 0.00 0.00
6:34 pm 18:34 Partly Cloudy with Thunderstorms 72 22 66 19 83 83 ESE 8 13 29.79 1009 5 8 0.00 0.00
6:55 pm 18:55 Mostly Cloudy with Strong Thunderstorms 71 21.4 66 19.1 87 87 NNW 6 9 29.83 1010 2 2 0.33 8.38
7:01 pm 19:01 Mostly Cloudy with Strong Thunderstorms 70 21 66 19 88 88 WSW 5 7 29.85 1011 1 2 0.00 0.00
7:14 pm 19:14 Cloudy with Thunderstorms 70 21 68 20 94 94 Calm 29.83 1010 1 2 0.00 0.00
7:21 pm 19:21 Cloudy with Showers 70 21 68 20 94 94 NNE 5 7 29.81 1010 3 5 0.00 0.00
7:55 pm 19:55 Cloudy with Light Showers 70 21.2 68 19.8 92 92 ENE 6 9 29.81 1010 6 10 0.42 10.67
8:55 pm 20:55 Mostly Cloudy 70 21.2 66 19.1 88 88 Calm 29.76 1008 10 16 0.02 0.51
9:55 pm 21:55 Mostly Cloudy 70 21 68 20 94 94 SSE 6 9 29.75 1007 10 16 0.00 0.00
10:55 pm 22:55 Cloudy 71 21.4 67 19.3 88 88 SE 8 13 29.76 1008 10 16 0.00 0.00
11:55 pm 23:55 Mostly Cloudy 71 21.6 67 19.3 87 87 SE 9 15 29.75 1007 10 16 0.00 0.00

Powered by AerisWeather